Tracking 19224 objects as of 22-Jul-2018
HD Live streaming from Space Station
objects crossing your sky now

FENGYUN 1C DEB

Track FENGYUN 1C DEB now!
10-day predictions


NORAD ID: 32313
Int'l Code: 1999-025CXE
Perigee: 813.0 km
Apogee: 1,024.7 km
Inclination: 99.2 °
Period: 103.2 minutes
Semi major axis: 7289 km
RCS: 0.01 m2 (small)
Launch date: May 10, 1999
Source: People's Republic of China (PRC)
Launch site: Taiyaun Space Center, China (TSC)

Note: This is SATELLITE DEBRIS
aabbcc
Your satellite tracking list
Your tracking list is empty




NASA's NSSDC Master Catalog

Two Line Element Set (TLE):
1 32313U 99025CXE 18199.37970058  .00000346  00000-0  26762-3 0  9993
2 32313  99.1925 250.4829 0145192 293.1195  65.4721 13.94851269557810
Source of the keplerian elements: AFSPC